Regional Weather Roundup
Issued by NWS

Home | Current Version | Previous Version | Graphics & Text | Print | Product List | Glossary On
Versions: 1 2 3 4 5 6 7 8 9 10 11 12 13 14 15 16 17 18 19 20 21 22 23 24 25 26 27 28 29 30 31 32 33 34 35 36 37 38 39 40 41 42 43 44 45 46 47 48 49 50
000
ASUS43 KDMX 240401
RWRIA

WEATHER ROUNDUP FOR IOWA
NATIONAL WEATHER SERVICE DES MOINES IA
1000 PM CST FRI FEB 23 2018

NOTE: "FAIR" INDICATES FEW OR NO CLOUDS BELOW 12,000 FEET WITH NO
SIGNIFICANT WEATHER AND/OR OBSTRUCTIONS TO VISIBILITY.

* - THESE STATIONS ARE NOT NWS STATIONS...THUS NOT UNDER NWS
QUALITY CONTROL.  THEY ALSO DO NOT REPORT WEATHER SUCH
AS PRECIPITATION OR FOG.

IAZ001>003-012>014-020>022-031>034-043>046-240500-
   NORTHWEST IOWA

CITY           SKY/WX    TMP DP  RH WIND       PRES   REMARKS
CARROLL *      CLOUDY    21  21 100 NE9       30.29F WCI  11
CHEROKEE *     CLOUDY    20  20 100 N7        30.28F WCI  11
DENISON *      CLOUDY    21  21 100 NE8       30.30F WCI  12
LE MARS *      CLOUDY    18  18 100 N9        30.29F FOG     WCI   6
ORANGE CITY *  CLOUDY    19  19 100 NE5       30.27S FOG     WCI  13
SHELDON *      FOG       18  18 100 N5        30.26S VSB 1/2 WCI  11
SIOUX CITY     CLOUDY    18  17  96 NE6       30.30S WCI  10
SPENCER        CLOUDY    19  17  92 N6        30.28S FOG     WCI  11
STORM LAKE *   CLEAR     21  21 100 N10       30.26F FOG     WCI  10
$$

IAZ055>058-069>071-079>083-090>094-240500-
   SOUTHWEST IOWA

CITY           SKY/WX    TMP DP  RH WIND       PRES   REMARKS
ATLANTIC *     CLOUDY    23  23 100 E9        30.28R WCI  13
AUDUBON *      CLOUDY    19  18  93 CALM      30.28S FOG
CLARINDA *     CLOUDY    30  28  93 NE8       30.27S WCI  23
COUNCIL BLFS * CLOUDY    21  21 100 NE8       30.27R WCI  12
CRESTON *      CLOUDY    25  23  93 NE10      30.26S WCI  15
HARLAN  *      CLOUDY    19  19 100 NE7       30.32R WCI  10
LAMONI         CLOUDY    28  24  85 NE9       30.24R WCI  19
RED OAK *      CLOUDY    28  25  86 NE8       30.27F WCI  20
SHENANDOAH *   CLOUDY    28  27  93 N10       30.26F WCI  19
$$

IAZ047>049-059>061-072>074-084-240500-
   CENTRAL IOWA

CITY           SKY/WX    TMP DP  RH WIND       PRES   REMARKS
AMES           CLOUDY    24  21  88 N5        30.31R WCI  18
ANKENY *       CLOUDY    25  23  93 NE7G13    30.31F WCI  17
BOONE *        CLOUDY    23  21  93 E10G17    30.29S WCI  12
CHARITON *     CLOUDY    27  25  93 N13       30.26F WCI  16
DES MOINES     CLOUDY    26  21  81 NE6       30.30S WCI  19
GRINNELL*      CLOUDY    27  24  89 NE7       30.30F WCI  19
KNOXVILLE *    MOCLDY    27  23  86 N8        30.27S WCI  18
MARSHALLTOWN   CLOUDY    23  21  92 NW5       30.30R WCI  17
NEWTON *       CLOUDY    27  23  86 NE7       30.30S WCI  19
PELLA *        CLOUDY    28  24  85 N5        30.31S WCI  23
PERRY *        CLOUDY    23  22  96 N8        30.30F WCI  14
$$

IAZ004>006-015-016-023>025-035-036-240500-
   NORTH CENTRAL IOWA

CITY           SKY/WX    TMP DP  RH WIND       PRES   REMARKS
CLARION *      FOG       12  12 100 N5        30.28F VSB<1/4 WCI   4
ESTHERVILLE    FOG       15  13  91 NW10      30.26F VSB 1/2 WCI   2
FORT DODGE *   CLOUDY    15  12  88 CALM      30.29S
MASON CITY     CLOUDY    13  11  92 CALM      30.28F FOG
FOREST CITY *  FAIR      19  18  93 CALM      30.27S
WEBSTER CITY * CLOUDY    16  16 100 CALM      30.28R FOG
IOWA FALLS *   FAIR      23  21  91 CALM      30.30S
$$

IAZ007>011-017>019-026>030-037>042-050>054-066-240500-
   NORTHEAST IOWA

CITY           SKY/WX    TMP DP  RH WIND       PRES   REMARKS
CEDAR RAPIDS   FAIR      25  21  85 NW6       30.29R WCI  18
CHARLES CITY * FAIR      21  21 100 N6        30.28S WCI  14
CLINTON *      FAIR      28  27  96 W7        30.29S WCI  21
DECORAH *      FAIR      23  21  93 N7        30.25F WCI  15
DUBUQUE        FAIR      26  21  81 N7        30.26S WCI  18
MONTICELLO *   FAIR      27  25  93 W3        30.28S
OELWEIN *      FAIR      25  25 100 N7G14     30.28R WCI  17
WATERLOO       FAIR      24  21  88 N6        30.30R WCI  17
$$

IAZ064-065-067-068-078-240500-
   EAST CENTRAL IOWA

CITY           SKY/WX    TMP DP  RH WIND       PRES   REMARKS
DAVENPORT      FAIR      31  26  82 W6        30.31R WCI  25
IOWA CITY      FAIR      27  23  85 W5        30.32S WCI  22
MT. PLEASANT * MOCLDY    32  28  86 N8        30.28S WCI  25
MUSCATINE *    FAIR      30  27  86 CALM      30.31S
QUAD CITIES    FAIR      31  27  85 W3        30.29S
$$

IAZ062-063-075>077-085>089-095>099-240500-
   SOUTHEAST IOWA

CITY           SKY/WX    TMP DP  RH WIND       PRES   REMARKS
BURLINGTON     CLOUDY    32  28  85 N8        30.27F WCI  25
FAIRFIELD *    CLOUDY    28  27  93 N8        30.28S WCI  20
FORT MADISON * MOCLDY    34  30  86 N5        30.28F WCI  30
KEOKUK *       CLOUDY    34  32  93 NE6       30.26F WCI  29
OSKALOOSA *    FAIR      28  26  93 N8        30.29F WCI  20
OTTUMWA        PTCLDY    28  24  85 N7        30.28F WCI  21
WASHINGTON *   PTCLDY    28  28 100 N8        30.30F WCI  20
$$

ABBREVIATIONS USED IN REMARKS
   TC - TEMPERATURES IN CELSIUS
  WCI - WIND CHILL INDEX
   HX - HEAT INDEX
  VSB - VISIBILITY
$$





USA.gov is the U.S. government's official web portal to all federal, state and local government web resources and services.